• In India
  • List of Countries
  • For 7 days
  • Water Temperature
  • Satellite Maps
  • Weather Map
  • Weather Widgets
  • user-avatar
    Login

    Hourly Weather Yulara

    Today, 26 September, Tuesday

    Time Temperature Precipitation Wind Pressure Humidity
    00:00 +25°C° 0 mm 5 mps 714 mmHg 20%
    01:00 +23°C° 0 mm 5 mps 714 mmHg 22%
    02:00 +22°C° 0 mm 4 mps 714 mmHg 24%
    03:00 +22°C° 0 mm 4 mps 713 mmHg 25%
    04:00 +21°C° 0 mm 4 mps 713 mmHg 26%
    05:00 +21°C° 0 mm 3 mps 713 mmHg 28%
    06:00 +21°C° 0 mm 3 mps 714 mmHg 29%
    07:00 +25°C° 0 mm 5 mps 714 mmHg 26%
    08:00 +27°C° 0 mm 7 mps 715 mmHg 23%
    09:00 +31°C° 0 mm 10 mps 715 mmHg 21%
    10:00 +33°C° 0 mm 11 mps 715 mmHg 19%
    11:00 +34°C° 0 mm 11 mps 715 mmHg 18%
    12:00 +37°C° 0 mm 12 mps 715 mmHg 16%
    13:00 +38°C° 0 mm 12 mps 714 mmHg 15%
    14:00 +38°C° 0 mm 12 mps 714 mmHg 14%
    15:00 +38°C° 0 mm 12 mps 714 mmHg 14%
    16:00 +37°C° 0 mm 11 mps 714 mmHg 15%
    17:00 +35°C° 0 mm 9 mps 714 mmHg 16%
    18:00 +34°C° 0 mm 8 mps 714 mmHg 17%
    19:00 +32°C° 0 mm 7 mps 715 mmHg 19%
    20:00 +29°C° 0 mm 6 mps 715 mmHg 22%
    21:00 +28°C° 0 mm 5 mps 715 mmHg 24%
    22:00 +27°C° 0 mm 5 mps 715 mmHg 26%
    23:00 +26°C° 0 mm 5 mps 715 mmHg 28%

    Tomorrow, 27 September, Wednesday

    Time Temperature Precipitation Wind Pressure Humidity
    00:00 +25°C° 0 mm 4 mps 715 mmHg 30%
    01:00 +25°C° 0 mm 4 mps 715 mmHg 32%
    02:00 +23°C° 0 mm 4 mps 715 mmHg 34%
    03:00 +22°C° 0 mm 4 mps 715 mmHg 37%
    04:00 +21°C° 0 mm 4 mps 715 mmHg 38%
    05:00 +21°C° 0 mm 4 mps 715 mmHg 40%
    06:00 +20°C° 0 mm 4 mps 715 mmHg 41%
    07:00 +21°C° 0 mm 4 mps 716 mmHg 38%
    08:00 +22°C° 0 mm 4 mps 716 mmHg 35%
    09:00 +23°C° 0 mm 4 mps 717 mmHg 32%
    10:00 +25°C° 0 mm 4 mps 717 mmHg 31%
    11:00 +27°C° 0 mm 4 mps 717 mmHg 31%
    12:00 +28°C° 0 mm 4 mps 716 mmHg 30%
    13:00 +27°C° 0.1 mm 5 mps 716 mmHg 36%
    14:00 +26°C° 0.1 mm 7 mps 716 mmHg 42%
    15:00 +24°C° 0.1 mm 9 mps 715 mmHg 47%
    16:00 +23°C° 0.8 mm 9 mps 716 mmHg 54%
    17:00 +22°C° 0.8 mm 9 mps 716 mmHg 61%
    18:00 +19°C° 0.8 mm 9 mps 716 mmHg 68%
    19:00 +20°C° 0.9 mm 7 mps 717 mmHg 63%
    20:00 +21°C° 0.9 mm 5 mps 717 mmHg 58%
    21:00 +21°C° 0.9 mm 4 mps 717 mmHg 53%
    22:00 +20°C° 0.7 mm 3 mps 717 mmHg 53%
    23:00 +20°C° 0.7 mm 3 mps 717 mmHg 53%

    Day after tomorrow, 28 September, Thursday

    Time Temperature Precipitation Wind Pressure Humidity
    00:00 +20°C° 0.7 mm 3 mps 718 mmHg 53%
    01:00 +19°C° 0.9 mm 3 mps 717 mmHg 56%
    02:00 +18°C° 0.9 mm 3 mps 717 mmHg 60%
    03:00 +18°C° 0.9 mm 3 mps 717 mmHg 63%
    04:00 +17°C° 1.5 mm 4 mps 717 mmHg 67%
    05:00 +17°C° 1.5 mm 4 mps 717 mmHg 71%
    06:00 +15°C° 1.5 mm 4 mps 718 mmHg 75%
    07:00 +15°C° 1.5 mm 5 mps 718 mmHg 76%
    08:00 +15°C° 1.5 mm 6 mps 719 mmHg 77%
    09:00 +15°C° 1.5 mm 6 mps 719 mmHg 77%
    10:00 +16°C° 0.7 mm 6 mps 719 mmHg 76%
    11:00 +16°C° 0.7 mm 5 mps 719 mmHg 75%
    12:00 +16°C° 0.7 mm 5 mps 719 mmHg 74%
    13:00 +16°C° 0.4 mm 5 mps 718 mmHg 75%
    14:00 +16°C° 0.4 mm 5 mps 717 mmHg 76%
    15:00 +16°C° 0.4 mm 5 mps 717 mmHg 77%
    16:00 +17°C° 0 mm 5 mps 717 mmHg 74%
    17:00 +18°C° 0 mm 4 mps 717 mmHg 72%
    18:00 +18°C° 0 mm 3 mps 717 mmHg 70%
    19:00 +18°C° 0.1 mm 4 mps 718 mmHg 72%
    20:00 +18°C° 0.1 mm 4 mps 718 mmHg 74%
    21:00 +18°C° 0.1 mm 4 mps 719 mmHg 76%
    22:00 +17°C° 0.2 mm 4 mps 718 mmHg 77%
    23:00 +17°C° 0.2 mm 4 mps 718 mmHg 78%

    29 September, Friday

    Time Temperature Precipitation Wind Pressure Humidity
    00:00 +17°C° 0.2 mm 4 mps 718 mmHg 79%
    01:00 +16°C° 1.4 mm 5 mps 718 mmHg 81%
    02:00 +16°C° 1.4 mm 5 mps 717 mmHg 83%
    03:00 +16°C° 1.4 mm 6 mps 717 mmHg 85%
    04:00 +16°C° 1.1 mm 6 mps 717 mmHg 84%
    05:00 +16°C° 1.1 mm 6 mps 718 mmHg 84%
    06:00 +16°C° 1.1 mm 5 mps 718 mmHg 83%
    07:00 +16°C° 1.6 mm 6 mps 718 mmHg 83%
    08:00 +16°C° 1.6 mm 6 mps 719 mmHg 82%
    09:00 +16°C° 1.6 mm 6 mps 719 mmHg 82%
    10:00 +17°C° 0.4 mm 6 mps 719 mmHg 77%
    11:00 +19°C° 0.4 mm 6 mps 719 mmHg 72%
    12:00 +20°C° 0.4 mm 7 mps 719 mmHg 67%
    13:00 +21°C° 0.1 mm 7 mps 718 mmHg 63%
    14:00 +23°C° 0.1 mm 7 mps 718 mmHg 60%
    15:00 +24°C° 0.1 mm 7 mps 717 mmHg 56%
    16:00 +22°C° 0.2 mm 8 mps 717 mmHg 60%
    17:00 +21°C° 0.2 mm 8 mps 718 mmHg 64%
    18:00 +19°C° 0.2 mm 9 mps 718 mmHg 69%
    19:00 +18°C° 0.6 mm 9 mps 718 mmHg 71%
    20:00 +17°C° 0.6 mm 9 mps 719 mmHg 74%
    21:00 +16°C° 0.6 mm 8 mps 719 mmHg 77%
    22:00 +16°C° 0.8 mm 8 mps 719 mmHg 78%
    23:00 +16°C° 0.8 mm 8 mps 719 mmHg 78%

    30 September, Saturday

    Time Temperature Precipitation Wind Pressure Humidity
    00:00 +16°C° 0.8 mm 7 mps 719 mmHg 79%
    01:00 +16°C° 0.2 mm 7 mps 719 mmHg 80%
    02:00 +16°C° 0.2 mm 7 mps 718 mmHg 80%
    03:00 +16°C° 0.2 mm 7 mps 718 mmHg 80%
    04:00 +16°C° 0.1 mm 7 mps 719 mmHg 81%
    05:00 +16°C° 0.1 mm 7 mps 719 mmHg 81%
    06:00 +16°C° 0.1 mm 7 mps 720 mmHg 81%
    07:00 +16°C° 0.2 mm 8 mps 720 mmHg 81%
    08:00 +16°C° 0.2 mm 8 mps 721 mmHg 80%
    09:00 +17°C° 0.2 mm 8 mps 721 mmHg 79%
    10:00 +16°C° 0.9 mm 8 mps 721 mmHg 80%
    11:00 +16°C° 0.9 mm 7 mps 721 mmHg 81%
    12:00 +16°C° 0.9 mm 7 mps 720 mmHg 82%
    13:00 +16°C° 0.5 mm 7 mps 720 mmHg 81%
    14:00 +16°C° 0.5 mm 8 mps 720 mmHg 80%
    15:00 +16°C° 0.5 mm 9 mps 719 mmHg 79%
    16:00 +16°C° 0.2 mm 9 mps 720 mmHg 80%
    17:00 +16°C° 0.2 mm 9 mps 720 mmHg 80%
    18:00 +15°C° 0.2 mm 9 mps 720 mmHg 80%
    19:00 +15°C° 0.1 mm 8 mps 721 mmHg 81%
    20:00 +15°C° 0.1 mm 7 mps 721 mmHg 82%
    21:00 +15°C° 0.1 mm 7 mps 722 mmHg 82%
    22:00 +15°C° 0 mm 7 mps 722 mmHg 83%
    23:00 +15°C° 0 mm 7 mps 722 mmHg 83%

    1 October, Sunday

    Time Temperature Precipitation Wind Pressure Humidity
    00:00 +14°C° 0 mm 7 mps 721 mmHg 83%
    01:00 +14°C° 0 mm 7 mps 721 mmHg 83%
    02:00 +14°C° 0 mm 7 mps 721 mmHg 84%
    03:00 +14°C° 0 mm 7 mps 721 mmHg 84%
    04:00 +14°C° 0 mm 7 mps 721 mmHg 84%
    05:00 +12°C° 0 mm 7 mps 721 mmHg 84%
    06:00 +12°C° 0 mm 7 mps 721 mmHg 85%
    07:00 +14°C° 0 mm 7 mps 722 mmHg 77%
    08:00 +16°C° 0 mm 8 mps 722 mmHg 70%
    09:00 +17°C° 0 mm 9 mps 722 mmHg 62%
    10:00 +18°C° 0 mm 9 mps 722 mmHg 56%
    11:00 +21°C° 0 mm 9 mps 722 mmHg 51%
    12:00 +23°C° 0 mm 9 mps 721 mmHg 45%
    13:00 +23°C° 0 mm 9 mps 721 mmHg 43%
    14:00 +24°C° 0 mm 8 mps 720 mmHg 40%
    15:00 +24°C° 0 mm 8 mps 720 mmHg 38%
    16:00 +24°C° 0 mm 7 mps 720 mmHg 39%
    17:00 +23°C° 0 mm 7 mps 720 mmHg 40%
    18:00 +23°C° 0 mm 7 mps 720 mmHg 41%
    19:00 +22°C° 0 mm 7 mps 721 mmHg 44%
    20:00 +21°C° 0 mm 7 mps 721 mmHg 47%
    21:00 +20°C° 0 mm 7 mps 722 mmHg 49%
    22:00 +18°C° 0 mm 7 mps 722 mmHg 51%
    23:00 +18°C° 0 mm 7 mps 721 mmHg 53%
    Show more